Weather Roundup
Issued by NWS Chicago, IL

Home | Current Version | Previous Version | Graphics & Text | Print | Product List | Glossary On
Versions: 1 2 3 4 5 6 7 8 9 10 11 12 13 14 15 16 17 18 19 20 21 22 23 24 25 26 27 28 29 30 31 32 33 34 35 36 37 38 39 40 41 42 43 44 45 46 47 48 49 50
000
NZUS59 KLOT 170308
HRRLOT

CHICAGO AREA WEATHER ROUNDUP
NATIONAL WEATHER SERVICE CHICAGO/ROMEOVILLE IL
900 PM CST MON JAN 16 2017

NOTE: "FAIR" INDICATES FEW OR NO CLOUDS BELOW 12,000 FEET WITH NO
SIGNIFICANT WEATHER AND/OR OBSTRUCTIONS TO VISIBILITY.

* THESE STATIONS ARE NOT UNDER NWS QUALITY CONTROL. THEY ALSO MAY NOT
  REPORT WEATHER SUCH AS PRECIPITATION OR FOG.

ILZ005-006-012>014-019>023-170400-
NORTHEAST ILLINOIS

CITY           SKY/WX    TMP DP  RH WIND       PRES   REMARKS
OHARE          DRIZZLE   36  36 100 E7        29.93F FOG
MIDWAY         LGT RAIN  36  36 100 NE5       29.94F VSB 3/4
AURORA         FOG       38  37  97 E7        29.91F VSB 1
LANSING*       HVY RAIN  38  38 100 SE7       29.94F VSB 1
JOLIET*        DRIZZLE   40  40 100 E6        29.92F
WAUKEGAN       LGT RAIN  37  36  96 E12       29.95F FOG
DUPAGE AIRPORT CLOUDY    37  35  92 E9        29.92F FOG
WHEELING       CLOUDY    37  36  96 E9        29.95F
KANKAKEE*      RAIN      40  39  97 CALM      29.93F
MORRIS*        CLOUDY    38  37  98 E6        29.90F FOG
LEWIS AIRPORT* DRIZZLE   37  37 100 E7        29.92F
NORTHERLY ISL    N/A     34  34 100 E5          N/A  WCI  30
$$

WIZ051-052-058>065-066-070>072-170400-
SOUTHEAST WISCONSIN

CITY           SKY/WX    TMP DP  RH WIND       PRES   REMARKS
MILWAUKEE      LGT RAIN  37  35  92 E15       29.98F FOG
KENOSHA*       LGT RAIN  36  35  96 E13       29.95F FOG
RACINE*        RAIN      36  34  92 E15       29.98F FOG
WAUKESHA       RAIN      32  32 100 E9        29.96F WCI  24
WEST BEND      LGT RAIN  34  34 100 E9        29.98F WCI  26
$$

INZ001>003-010>013-019-020-170400-
NORTHWEST INDIANA

CITY           SKY/WX    TMP DP  RH WIND       PRES   REMARKS
GARY*          NOT AVBL
MICHIGAN CITY* NOT AVBL
RENSSELAER*    NOT AVBL
VALPARAISO     FOG       38  38 100 E7        29.96F VSB 1/4
$$

LMZ740>746-170400-
SOUTHERN LAKE MICHIGAN

STATION/POSITION TIME  SKY/WX   TEMP WIND        PRES    VSBY
                                AIR  DIR/SP/G
                 (UTC)          (F)  (DEG/KT/KT) (MB)    (MI)
HARRISON CRIB    0240            36  100/  9/ 10   N/A
BURNHAM HARBOR   0300            34   10/  2/  6   N/A
CALUMET HARBOR   0242            35   90/  5/  7 1013.5F
BURNS HARBOR     0230            42  140/  9/ 17 1014.9F
MICHIGAN CITY    0240            40  110/ 10/ 13   N/A
$$

ABBREVIATIONS USED IN REMARKS
   TC - TEMPERATURE IN CELSIUS
  WCI - WIND CHILL INDEX
   HX - HEAT INDEX
  VSB - VISIBILITY
$$




USA.gov is the U.S. government's official web portal to all federal, state and local government web resources and services.